sat.trackr.live / text

‹ back to catalog

STARLINK-30997

NORAD 58482 · 2023-186K

PAYLOAD ACTIVE UNKNOWN

§ Identity

Operator
Country
US
Launch date
2023-12-03
Launch site
AFETR
Launch vehicle
Mass (kg)
RCS (m²)

Purposes: comms

External: N2YO · Heavens-Above · Gunter

§ Orbital elements

Epoch: 2026-09-20T15:51:52.082208Z

Period
94.27 min
Inclination
43.0008°
Eccentricity
0.0001379
Mean motion
15.27592263 rev/d
Perigee alt
482.1 km
Apogee alt
484.0 km
Semi-major
6,861.1 km
B*
4.7349e-4
RAAN
42.5972°
Arg perigee
257.8728°
Mean anomaly
102.1969°
Rev number
15,571

§ Raw data

STARLINK-309971 58482U 23186K   26263.66101947  .00012795  00000+0  47349-3 0  99932 58482  43.0008  42.5972 0001379 257.8728 102.1969 15.27592263155711

JSON: /api/v1/satellites/58482 · /tle

For live sub-satellite position, see the globe view (requires WebGL).

§ Visibility from observer

Set your observer location to see the next 7 days of passes ≥ 10°. The values pass through the URL so the page stays shareable.

No JS? Fill the form by hand. The geolocation button needs JavaScript.